COTTON VALLEY VI US current weather conditions

sailwx.info

Wind from 165 at 4 knots gusting 14

Air temperature 28.9° C
Dewpoint 26.3° C

Last reported at 2019-Aug-22 14:13 UTC.
Time now 2019-Aug-22 15:32 UTC

Location: N 17°45' W 064°37'.
View on Google Maps.

See reports from other nearby stations

  
Tides and Currents Weather Stations Pressure Air Temp Water Temp Dewpoint Dewpoint Depression Visibility Wind Speed Wind Dir Waves Ship Positions
date/time (UTC)wind fromknots sea level pressurealtimeterstation pressurevisibilityair tempwater tempwave heightnotes
2019-Aug-22 14:13 165 4 gusting 14 28.9
2019-Aug-22 13:13 151 7 gusting 20 23.9
2019-Aug-22 12:13 157 6 gusting 21 24.4
2019-Aug-22 11:13 160 6 gusting 13 25.6
2019-Aug-22 10:13 172 6 gusting 14 24.4
2019-Aug-22 09:13 163 5 gusting 12 25.0
2019-Aug-22 08:13 148 4 gusting 12 25.0
2019-Aug-22 07:13 150 3 gusting 7 25.0
2019-Aug-22 06:13 165 2 gusting 6 24.4
2019-Aug-22 05:13 170 2 gusting 6 24.4
2019-Aug-22 04:13 134 3 gusting 11 24.4
2019-Aug-22 03:13 024 5 gusting 13 23.9
2019-Aug-22 02:13 027 4 gusting 9 24.4
2019-Aug-22 01:13 012 4 gusting 9 25.6
2019-Aug-22 00:13 032 3 gusting 7 26.7
2019-Aug-21 23:13 028 3 gusting 7 26.7
2019-Aug-21 22:13 027 2 gusting 8 27.2
2019-Aug-21 21:13 038 2 gusting 11 27.8
2019-Aug-21 20:13 038 2 gusting 7 32.8
2019-Aug-21 19:13 055 2 gusting 10 35.0
2019-Aug-21 18:13 056 3 gusting 10 35.0
2019-Aug-21 17:13 052 4 gusting 11 35.0
2019-Aug-21 16:13 065 3 gusting 10 35.6
2019-Aug-21 15:13 054 3 gusting 10 34.4
2019-Aug-21 14:13 046 3 gusting 12 34.4
2019-Aug-21 13:13 054 3 gusting 9 32.8
2019-Aug-21 12:13 046 3 gusting 10 30.0
2019-Aug-21 11:13 044 3 gusting 8 27.2
2019-Aug-21 10:13 027 4 gusting 9 25.0
2019-Aug-21 09:13 024 4 gusting 11 25.0
2019-Aug-21 08:13 023 4 gusting 10 25.6
2019-Aug-21 07:13 024 4 gusting 13 26.1
2019-Aug-21 06:13 023 4 gusting 12 25.6
2019-Aug-21 05:13 026 5 gusting 13 26.1
2019-Aug-21 04:13 031 5 gusting 14 26.1
2019-Aug-21 03:13 026 5 gusting 14 26.1
2019-Aug-21 02:13 021 6 gusting 15 25.6
2019-Aug-21 01:13 014 6 gusting 14 26.7
2019-Aug-21 00:13 018 5 gusting 11 26.7
2019-Aug-20 23:13 014 4 gusting 13 27.2
2019-Aug-20 22:13 020 4 gusting 12 28.3
2019-Aug-20 21:13 018 4 gusting 13 30.0
2019-Aug-20 20:13 026 4 gusting 11 31.7
2019-Aug-20 19:13 048 3 gusting 9 35.6
2019-Aug-20 18:13 048 3 gusting 10 36.7
2019-Aug-20 17:13 055 3 gusting 11 35.6
2019-Aug-20 16:13 037 4 gusting 10 35.6
2019-Aug-20 15:13 111 4 gusting 12 34.4